Tracking 23762 objects as of 19-Oct-2021
HD Live streaming from Space Station
objects crossing your sky now

FLOCK 3R 13

Track FLOCK 3R 13 now!
10-day predictions
FLOCK 3R 13 is classified as:


NORAD ID: 43750
Int'l Code: 2018-096AH
Perigee: 454.5 km
Apogee: 478.0 km
Inclination: 97.4 °
Period: 93.8 minutes
Semi major axis: 6837 km
RCS: Unknown
Launch date: November 29, 2018
Source: United States (US)
Launch site: SRIHARIKOTA (SRI)
aabbcc
Your satellite tracking list
Your tracking list is empty




NASA's NSSDC Master Catalog

Two Line Element Set (TLE):
1 43750U 18096AH  21291.75474279  .00018412  00000-0  53117-3 0  9999
2 43750  97.3836  12.5958 0017155 183.8187 176.2929 15.35601282161256
Source of the keplerian elements: AFSPC